GW1475 Weather Reports


time (UTC)temp
C
wind
direction
speed
KPH
gust
KPH
rain 1hr
cm
rain 24hr
cm
rain mn
cm
humidity
%
barometer
mb
20260505101527 8 181 0.0 0.0 0.00 0.00 0.00 99 1007.1
20260505100942 8 180 0.0 0.0 0.00 0.00 0.00 99 1006.7
20260505100313 8 180 0.0 0.0 0.00 0.00 0.00 99 1006.7
20260505095740 8 180 0.0 0.0 0.00 0.00 0.00 99 1006.7
20260505095146 8 181 0.0 0.0 0.00 0.00 0.00 99 1006.4
20260505094528 8 160 0.0 0.0 0.00 0.00 0.00 99 1006.4
20260505093910 8 240 0.0 0.0 0.00 0.00 0.00 99 1006.4
20260505093331 8 167 0.0 0.0 0.00 0.00 0.00 99 1006.4
20260505092734 8 168 0.0 0.0 0.00 0.00 0.00 99 1006.0
20260505092112 8 157 0.0 0.0 0.00 0.00 0.00 99 1006.0
20260505091543 8 159 0.0 0.0 0.00 0.00 0.00 99 1006.4
20260505090932 8 145 0.0 0.0 0.00 0.00 0.00 99 1006.0
20260505090330 8 156 0.0 0.0 0.00 0.00 0.00 99 1006.0
20260505085725 8 180 0.0 0.0 0.00 0.00 0.00 99 1006.0
20260505085123 8 165 0.0 0.0 0.00 0.00 0.00 99 1006.0
20260505084548 8 161 0.0 0.0 0.00 0.00 0.00 99 1006.0
20260505083930 8 160 0.0 0.0 0.00 0.00 0.00 99 1006.0
20260505082713 8 180 0.0 0.0 0.00 0.00 0.00 99 1006.0
20260505081509 9 180 0.0 0.0 0.00 0.00 0.00 99 1006.0
20260505080952 9 180 0.0 0.0 0.00 0.00 0.00 99 1006.0
20260505080308 9 180 0.0 0.0 0.00 0.00 0.00 99 1006.0
20260505075729 9 180 0.0 0.0 0.00 0.00 0.00 99 1006.0
20260505075111 9 180 0.0 0.0 0.00 0.00 0.00 99 1006.0
20260505073939 9 180 0.0 0.0 0.00 0.00 0.00 99 1006.0
20260505073351 9 180 0.0 0.0 0.00 0.00 0.00 99 1006.0
20260505072150 10 180 0.0 0.0 0.00 0.00 0.00 99 1006.0
20260505070926 10 180 0.0 0.0 0.00 0.00 0.00 99 1006.0
20260505070310 10 180 0.0 0.0 0.00 0.00 0.00 99 1005.7
20260505065739 10 180 0.0 0.0 0.00 0.00 0.00 99 1006.0
20260505064531 10 180 0.0 1.6 0.00 0.00 0.00 99 1006.0
20260505063912 10 180 0.0 0.0 0.00 0.00 0.00 99 1006.0
20260505063352 10 180 0.0 0.0 0.00 0.00 0.00 99 1006.0
20260505062752 10 180 0.0 0.0 0.00 0.00 0.00 99 1006.0
20260505062120 10 180 0.0 0.0 0.00 0.00 0.00 99 1006.0
20260505060932 10 180 0.0 0.0 0.00 0.00 0.00 99 1006.0
20260505060347 10 180 0.0 0.0 0.00 0.00 0.00 99 1006.0
20260505055730 10 180 0.0 0.0 0.00 0.00 0.00 99 1005.7
20260505055120 10 180 0.0 0.0 0.00 0.00 0.00 99 1006.0
20260505054545 10 180 0.0 0.0 0.00 0.00 0.00 99 1006.0
20260505053930 10 180 0.0 0.0 0.00 0.00 0.00 99 1005.7
20260505053309 11 180 0.0 0.0 0.00 0.00 0.00 99 1005.7
20260505051537 11 180 0.0 0.0 0.00 0.00 0.00 99 1005.7
20260505050326 11 180 0.0 0.0 0.00 0.00 0.00 99 1005.7
20260505041526 11 180 0.0 0.0 0.00 0.00 0.00 99 1005.0
20260505040919 12 180 0.0 0.0 0.00 0.00 0.00 99 1005.0
20260505035138 12 180 0.0 0.0 0.00 0.00 0.00 99 1004.7
20260505034556 12 180 0.0 1.6 0.00 0.00 0.00 99 1004.7
20260505033913 12 180 0.0 0.0 0.00 0.00 0.00 99 1004.4
20260505033320 12 180 0.0 0.0 0.00 0.00 0.00 99 1004.7
20260505032719 12 180 0.0 0.0 0.00 0.00 0.00 99 1005.0
20260505032128 12 180 0.0 0.0 0.00 0.00 0.00 99 1004.7
20260505031514 12 180 0.0 0.0 0.00 0.00 0.00 99 1004.7
20260505030941 12 180 0.0 0.0 0.00 0.00 0.00 99 1004.7
20260505030344 12 180 0.0 0.0 0.00 0.00 0.00 99 1004.7
20260505025743 13 180 0.0 0.0 0.00 0.00 0.00 99 1004.4
20260505025129 13 180 0.0 0.0 0.00 0.00 0.00 98 1004.7
20260505024538 13 180 0.0 0.0 0.00 0.00 0.00 98 1004.7
20260505022123 13 180 0.0 0.0 0.00 0.00 0.00 97 1004.4
20260505021512 13 180 0.0 0.0 0.00 0.00 0.00 96 1004.7
20260505020926 13 181 0.0 0.0 0.00 0.00 0.00 96 1004.7
20260505020317 14 179 0.0 0.0 0.00 0.00 0.00 95 1004.4
20260505015154 14 178 0.0 0.0 0.00 0.00 0.00 94 1004.7
20260505014530 15 178 0.0 0.0 0.00 0.00 0.00 93 1004.4
20260505013918 15 178 0.0 0.0 0.00 0.00 0.00 93 1004.4
20260505013318 15 179 0.0 0.0 0.00 0.00 0.00 92 1004.4
20260505012711 15 178 0.0 0.0 0.00 0.00 0.00 91 1004.4
20260505012147 15 178 0.0 0.0 0.00 0.00 0.00 90 1004.0
20260505011536 16 170 0.0 0.0 0.00 0.00 0.00 89 1004.4
20260505010914 16 169 0.0 0.0 0.00 0.00 0.00 89 1004.4
20260505010331 16 162 0.0 0.0 0.00 0.00 0.00 87 1004.4
20260505005751 16 162 0.0 0.0 0.00 0.00 0.00 87 1004.4
20260505005121 17 163 0.0 1.6 0.00 0.00 0.00 86 1004.0
20260505004534 17 160 0.0 0.0 0.00 0.00 0.00 85 1004.0
20260505003929 17 161 0.0 0.0 0.00 0.00 0.00 84 1004.0
20260505003354 17 139 1.6 1.6 0.00 0.00 0.00 82 1004.0
20260505002111 18 197 0.0 0.0 0.00 0.00 0.00 79 1004.0
20260505001513 18 197 0.0 0.0 0.00 0.00 0.00 77 1004.0
20260505000916 19 198 0.0 0.0 0.00 0.00 0.00 76 1004.0
20260505000318 20 184 0.0 0.0 0.00 0.00 0.00 74 1004.0
20260504235715 20 182 0.0 0.0 0.00 0.00 0.00 73 1004.0
20260504234528 21 159 0.0 0.0 0.00 0.00 0.00 70 1004.0
20260504233933 21 160 0.0 1.6 0.00 0.00 0.00 65 1004.0
20260504233341 22 155 1.6 1.6 0.00 0.00 0.00 59 1003.7
20260504232715 23 169 0.0 0.0 0.00 0.00 0.00 59 1003.7
20260504232153 24 160 1.6 3.2 0.00 0.00 0.00 54 1004.0
20260504231519 24 115 6.4 6.4 0.00 0.00 0.00 50 1004.0
20260504230952 25 84 3.2 4.8 0.00 0.00 0.00 50 1004.0
20260504225715 25 79 1.6 1.6 0.00 0.00 0.00 49 1003.7
20260504225147 25 123 8.0 9.7 0.00 0.00 0.00 48 1004.0
20260504224511 25 157 6.4 6.4 0.00 0.00 0.00 48 1004.0
20260504223935 25 109 6.4 6.4 0.00 0.00 0.00 48 1004.0
20260504223316 25 137 8.0 11.3 0.00 0.00 0.00 48 1004.0
20260504222753 25 84 4.8 4.8 0.00 0.00 0.00 48 1004.0
20260504222112 26 112 16.1 19.3 0.00 0.00 0.00 47 1004.4
20260504221522 25 73 9.7 14.5 0.00 0.00 0.00 47 1004.4
20260504220927 25 96 11.3 14.5 0.00 0.00 0.00 47 1004.4
20260504220316 26 130 12.9 14.5 0.00 0.00 0.00 47 1004.0
20260504215123 25 107 6.4 9.7 0.00 0.00 0.00 47 1004.4
20260504214552 25 99 16.1 22.5 0.00 0.00 0.00 47 1004.4
20260504213951 25 145 19.3 22.5 0.00 0.00 0.00 47 1004.0
20260504211528 25 135 11.3 14.5 0.00 0.00 0.00 47 1004.4
20260504210950 25 64 14.5 16.1 0.00 0.00 0.00 47 1004.4
20260504210330 25 115 4.8 9.7 0.00 0.00 0.00 49 1004.4
20260504205734 26 163 3.2 4.8 0.00 0.00 0.00 50 1004.4
20260504205140 25 135 14.5 16.1 0.00 0.00 0.00 49 1004.4
20260504204542 25 86 8.0 14.5 0.00 0.00 0.00 50 1004.4
20260504203932 25 163 19.3 32.2 0.00 0.00 0.00 50 1004.4
20260504202734 25 118 16.1 16.1 0.00 0.00 0.00 51 1004.4
20260504202114 25 100 11.3 14.5 0.00 0.00 0.00 51 1004.7
20260504201541 25 333 9.7 12.9 0.00 0.00 0.00 52 1004.7
20260504200320 25 102 8.0 11.3 0.00 0.00 0.00 54 1004.7
20260504195752 24 236 1.6 4.8 0.00 0.00 0.00 54 1005.0
20260504195125 24 137 1.6 3.2 0.00 0.00 0.00 57 1005.0
20260504194552 23 339 3.2 3.2 0.00 0.00 0.00 57 1005.4
20260504193936 23 206 3.2 4.8 0.00 0.00 0.00 58 1005.4
20260504193338 23 246 1.6 3.2 0.00 0.00 0.00 60 1005.4
20260504192722 22 236 3.2 4.8 0.00 0.00 0.00 60 1005.7
20260504192139 22 52 3.2 3.2 0.00 0.00 0.00 59 1006.0
20260504191533 22 225 1.6 1.6 0.00 0.00 0.00 61 1006.0
20260504190949 21 329 3.2 3.2 0.00 0.00 0.00 61 1006.0
20260504185733 21 156 0.0 0.0 0.00 0.00 0.00 61 1006.4
20260504184535 20 136 3.2 3.2 0.00 0.00 0.00 64 1006.4
20260504183943 20 159 1.6 1.6 0.00 0.00 0.00 67 1006.7
20260504183329 20 82 6.4 11.3 0.00 0.00 0.00 64 1006.4
20260504182741 20 153 0.0 0.0 0.00 0.00 0.00 63 1007.1
20260504182142 20 120 8.0 9.7 0.00 0.00 0.00 62 1006.4
20260504181512 20 139 3.2 3.2 0.00 0.00 0.00 62 1006.4
20260504180923 20 113 8.0 11.3 0.00 0.00 0.00 61 1006.4
20260504180320 20 132 3.2 4.8 0.00 0.00 0.00 60 1006.0
20260504175748 20 72 6.4 9.7 0.00 0.00 0.00 59 1006.0
20260504174534 20 52 3.2 3.2 0.00 0.00 0.00 60 1006.4
20260504173931 21 79 6.4 9.7 0.00 0.00 0.00 59 1006.7
20260504172713 21 197 6.4 6.4 0.00 0.00 0.00 60 1006.4
20260504172134 21 107 9.7 12.9 0.00 0.00 0.00 60 1006.4
20260504171554 20 313 8.0 9.7 0.00 0.00 0.00 61 1006.4
20260504170919 20 112 3.2 4.8 0.00 0.00 0.00 62 1006.7
20260504170335 21 86 8.0 11.3 0.00 0.00 0.00 61 1006.7
20260504160347 17 71 1.6 1.6 0.00 0.00 0.00 76 1007.7
20260504141236 14 134 4.8 4.8 0.00 0.00 0.00 78 1009.8
20260504140653 13 93 4.8 4.8 0.00 0.00 0.00 79 1009.8
20260504130633 12 153 3.2 4.8 0.00 0.00 0.00 78 1009.1
20260504110627 5 182 0.0 0.0 0.00 0.00 0.00 99 1008.8